Weather History for Gulf Shores, AL

Change the Weather History Date:

Saturday, October 13, 2012

  Actual Average (KPNS) Record (KPNS)
Temperature  
Mean Temperature 70 °F 70 °F  
Max Temperature 80 °F 80 °F 89 °F (1884)
Min Temperature 60 °F 61 °F 43 °F (1977)
Degree Days  
Heating Degree Days 0 1  
Month to date heating degree days 3  
Since 1 July heating degree days 4  
Cooling Degree Days 5 6  
Month to date cooling degree days 100  
Year to date cooling degree days 2470  
Growing Degree Days 20 (Base 50)    
Moisture  
Dew Point 65 °F    
Average Humidity 78    
Maximum Humidity 100    
Minimum Humidity 58    
Precipitation  
Precipitation 0.00 in 0.16 in 2.62 in (2014)
Month to date precipitation 2.25  
Year to date precipitation 53.00  
Sea Level Pressure  
Sea Level Pressure 30.19 in    
Wind  
Wind Speed 4 mph (ESE)    
Max Wind Speed 14 mph    
Max Gust Speed 21 mph    
Visibility 8 miles    
Events      
T = Trace of Precipitation, MM = Missing Value Source: NWS Daily Summary

Daily Weather History Graph

Daily Weather History Graph

Search for Another Location

Airport:

Trip Planner

Search our weather history database for the weather conditions in past years. The results will help you decide how hot, cold, wet, or windy it might be!

Date:

Astronomy

Oct. 13, 2012 Rise Set
Actual Time 6:51 AM CDT 6:21 PM CDT
Civil Twilight 6:27 AM CDT 6:45 PM CDT
Nautical Twilight 5:59 AM CDT 7:13 PM CDT
Astronomical Twilight 5:31 AM CDT 7:41 PM CDT
Moon 4:47 AM CDT (10/13) 5:00 PM CDT (10/13)
Length of Visible Light 12h 17m
Length of Day
11h 29m
Waning Crescent, 5% of the Moon is Illuminated
Oct 13
Waning Crescent
Oct 15
New
Oct 21
First Quarter
Oct 29
Full
Nov 6
Last Quarter

Hourly Weather History & Observations

Time (CDT) Temp. Heat Index Dew Point Humidity Pressure Visibility Wind Dir Wind Speed Gust Speed Precip Events Conditions
1:35 AM 60.8 °F - 60.8 °F 100% 30.19 in 1.0 mi Calm Calm - N/A   Mist
1:55 AM 60.8 °F - 60.8 °F 100% 30.18 in 7.0 mi Calm Calm - N/A   Unknown
2:15 AM 60.8 °F - 60.8 °F 100% 30.19 in 5.0 mi Calm Calm - N/A   Mist
2:35 AM 60.8 °F - 60.8 °F 100% 30.19 in 0.8 mi Calm Calm - N/A   Mist
2:55 AM 60.8 °F - 60.8 °F 100% 30.19 in 1.5 mi Calm Calm - N/A   Mist
3:15 AM 60.8 °F - 60.8 °F 100% 30.19 in 1.8 mi Calm Calm - N/A   Mist
3:35 AM 60.8 °F - 59.0 °F 94% 30.19 in 1.5 mi Calm Calm - N/A   Mist
3:55 AM 60.8 °F - 60.8 °F 100% 30.20 in 5.0 mi Calm Calm - N/A   Mist
4:15 AM 60.8 °F - 60.8 °F 100% 30.19 in 7.0 mi Calm Calm - N/A   Unknown
4:35 AM 60.8 °F - 60.8 °F 100% 30.19 in 1.2 mi Calm Calm - N/A   Mist
5:35 AM 60.8 °F - 59.0 °F 94% 30.21 in 7.0 mi Calm Calm - N/A   Unknown
5:55 AM 60.8 °F - 59.0 °F 94% 30.21 in 10.0 mi Calm Calm - N/A   Unknown
6:15 AM 60.8 °F - 60.8 °F 100% 30.21 in 7.0 mi Calm Calm - N/A   Unknown
6:35 AM 60.8 °F - 60.8 °F 100% 30.22 in 5.0 mi Calm Calm - N/A   Mist
6:55 AM 60.8 °F - 60.8 °F 100% 30.22 in 5.0 mi Calm Calm - N/A   Mist
7:15 AM 62.6 °F - 60.8 °F 94% 30.23 in 7.0 mi Calm Calm - N/A   Unknown
7:35 AM 64.4 °F - 62.6 °F 94% 30.23 in 7.0 mi Calm Calm - N/A   Unknown
7:55 AM 66.2 °F - 62.6 °F 88% 30.23 in 10.0 mi ENE 3.5 mph - N/A   Unknown
8:15 AM 68.0 °F - 64.4 °F 88% 30.23 in 10.0 mi ENE 5.8 mph - N/A   Unknown
8:55 AM 71.6 °F - 66.2 °F 83% 30.23 in 10.0 mi East 5.8 mph - N/A   Unknown
9:55 AM 78.8 °F - 68.0 °F 69% 30.24 in 10.0 mi East 8.1 mph 17.3 mph N/A   Unknown
10:15 AM 78.8 °F - 68.0 °F 69% 30.25 in 10.0 mi East 13.8 mph - N/A   Unknown
11:15 AM 80.6 °F 83.2 °F 68.0 °F 65% 30.24 in 10.0 mi East 13.8 mph 18.4 mph N/A   Unknown
11:35 AM 80.6 °F 83.2 °F 68.0 °F 65% 30.24 in 10.0 mi ESE 13.8 mph 20.7 mph N/A   Unknown
11:55 AM 80.6 °F 83.2 °F 68.0 °F 65% 30.24 in 10.0 mi ESE 12.7 mph 18.4 mph N/A   Unknown
12:35 PM 80.6 °F 83.2 °F 68.0 °F 65% 30.22 in 10.0 mi East 13.8 mph - N/A   Unknown
12:55 PM 80.6 °F 83.2 °F 68.0 °F 65% 30.21 in 10.0 mi ESE 10.4 mph - N/A   Unknown
1:15 PM 80.6 °F 83.2 °F 68.0 °F 65% 30.20 in 10.0 mi ESE 11.5 mph - N/A   Unknown
1:35 PM 80.6 °F 83.2 °F 68.0 °F 65% 30.20 in 10.0 mi SE 12.7 mph - N/A   Unknown
1:55 PM 80.6 °F 82.7 °F 66.2 °F 61% 30.18 in 10.0 mi ESE 11.5 mph - N/A   Unknown
2:15 PM 80.6 °F 83.2 °F 68.0 °F 65% 30.18 in 10.0 mi ESE 9.2 mph - N/A   Unknown
2:35 PM 80.6 °F 82.7 °F 66.2 °F 61% 30.17 in 10.0 mi SSE 13.8 mph - N/A   Unknown
2:55 PM 80.6 °F 83.2 °F 68.0 °F 65% 30.16 in 10.0 mi SE 10.4 mph - N/A   Unknown
3:15 PM 80.6 °F 83.2 °F 68.0 °F 65% 30.16 in 10.0 mi SE 8.1 mph - N/A   Unknown
3:35 PM 80.6 °F 82.7 °F 66.2 °F 61% 30.15 in 10.0 mi ESE 11.5 mph - N/A   Unknown
3:55 PM 80.6 °F 82.3 °F 64.4 °F 58% 30.15 in 10.0 mi ESE 11.5 mph - N/A   Unknown
4:15 PM 80.6 °F 82.7 °F 66.2 °F 61% 30.15 in 10.0 mi ESE 10.4 mph - N/A   Unknown
4:35 PM 80.6 °F 82.7 °F 66.2 °F 61% 30.15 in 10.0 mi ESE 11.5 mph - N/A   Unknown
4:55 PM 78.8 °F - 64.4 °F 61% 30.15 in 10.0 mi ESE 6.9 mph 10.4 mph N/A   Unknown
5:15 PM 78.8 °F - 66.2 °F 65% 30.15 in 10.0 mi ESE 8.1 mph - N/A   Unknown
5:35 PM 78.8 °F - 66.2 °F 65% 30.15 in 10.0 mi ESE 10.4 mph - N/A   Unknown
5:55 PM 77.0 °F - 68.0 °F 74% 30.15 in 10.0 mi ESE 8.1 mph - N/A   Unknown
6:15 PM 77.0 °F - 69.8 °F 78% 30.15 in 10.0 mi SE 4.6 mph - N/A   Unknown
6:35 PM 75.2 °F - 69.8 °F 83% 30.15 in 10.0 mi SE 5.8 mph - N/A   Unknown
6:55 PM 75.2 °F - 69.8 °F 83% 30.15 in 10.0 mi SE 6.9 mph - N/A   Unknown
7:35 PM 77.0 °F - 68.0 °F 74% 30.15 in 10.0 mi SE 5.8 mph - N/A   Unknown
7:55 PM 75.2 °F - 68.0 °F 78% 30.15 in 10.0 mi SE 6.9 mph - N/A   Unknown
8:35 PM 77.0 °F - 68.0 °F 74% 30.16 in 10.0 mi SE 6.9 mph - N/A   Unknown
9:15 PM 77.0 °F - 68.0 °F 74% 30.17 in 10.0 mi SE 6.9 mph - N/A   Unknown
9:35 PM 77.0 °F - 68.0 °F 74% 30.18 in 10.0 mi SE 8.1 mph - N/A   Unknown
9:55 PM 77.0 °F - 68.0 °F 74% 30.17 in 10.0 mi SE 6.9 mph - N/A   Unknown
10:15 PM 77.0 °F - 68.0 °F 74% 30.17 in 10.0 mi SE 10.4 mph - N/A   Unknown
10:35 PM 77.0 °F - 66.2 °F 69% 30.16 in 10.0 mi SE 9.2 mph - N/A   Unknown
10:55 PM 75.2 °F - 66.2 °F 73% 30.16 in 10.0 mi SE 6.9 mph - N/A   Unknown
11:15 PM 75.2 °F - 64.4 °F 69% 30.15 in 10.0 mi SE 9.2 mph - N/A   Unknown
11:35 PM 75.2 °F - 64.4 °F 69% 30.15 in 10.0 mi SE 8.1 mph - N/A   Unknown